Time,TemperatureF,DewpointF,PressureIn,WindDirection,WindDirectionDegrees,WindSpeedMPH,WindSpeedGustMPH,Humidity,HourlyPrecipIn,Conditions,Clouds,dailyrainin,SoftwareType,DateUTC
2013-05-16 00:12:00,53.7,53.0,29.92,SSE,156,0.0,0.0,96,0.00,,,0.02,weatherlink.com 1.10,2013-05-16 04:12:00,
2013-05-16 00:27:00,53.9,53.0,29.92,SSE,156,0.0,1.0,96,0.00,,,0.02,weatherlink.com 1.10,2013-05-16 04:27:00,
2013-05-16 00:42:00,54.2,53.0,29.92,SSE,156,0.0,3.0,97,0.00,,,0.02,weatherlink.com 1.10,2013-05-16 04:42:00,
2013-05-16 00:57:00,56.8,56.0,29.93,South,169,0.0,3.0,97,0.00,,,0.02,weatherlink.com 1.10,2013-05-16 04:57:00,
2013-05-16 01:12:00,58.2,56.0,29.92,SSE,166,0.0,3.0,91,0.00,,,0.02,weatherlink.com 1.10,2013-05-16 05:12:00,
2013-05-16 01:27:00,59.3,56.0,29.93,ESE,122,0.0,2.0,88,0.00,,,0.02,weatherlink.com 1.10,2013-05-16 05:27:00,
2013-05-16 01:42:00,60.9,56.0,29.93,SSE,154,1.0,5.0,83,0.00,,,0.02,weatherlink.com 1.10,2013-05-16 05:42:00,
2013-05-16 01:57:00,62.4,55.0,29.93,ESE,105,1.0,8.0,78,0.00,,,0.02,weatherlink.com 1.10,2013-05-16 05:57:00,
2013-05-16 02:12:00,61.2,55.0,29.93,SSE,165,0.0,3.0,80,0.00,,,0.02,weatherlink.com 1.10,2013-05-16 06:12:00,
2013-05-16 02:27:00,61.3,55.0,29.92,SSE,165,2.0,6.0,79,0.00,,,0.02,weatherlink.com 1.10,2013-05-16 06:27:00,
2013-05-16 02:42:00,61.6,54.0,29.93,SSE,167,3.0,7.0,75,0.00,,,0.02,weatherlink.com 1.10,2013-05-16 06:42:00,
2013-05-16 02:57:00,62.1,53.0,29.93,SE,142,2.0,5.0,72,0.00,,,0.02,weatherlink.com 1.10,2013-05-16 06:57:00,
2013-05-16 03:12:00,61.6,52.0,29.93,SSE,148,5.0,7.0,72,0.00,,,0.02,weatherlink.com 1.10,2013-05-16 07:12:00,
2013-05-16 03:27:00,61.2,52.0,29.93,South,180,1.0,4.0,72,0.00,,,0.02,weatherlink.com 1.10,2013-05-16 07:27:00,
2013-05-16 03:42:00,60.1,51.0,29.92,SSW,194,0.0,5.0,72,0.00,,,0.02,weatherlink.com 1.10,2013-05-16 07:42:00,
2013-05-16 03:57:00,59.7,51.0,29.92,South,172,0.0,3.0,74,0.00,,,0.02,weatherlink.com 1.10,2013-05-16 07:57:00,
2013-05-16 04:12:00,59.1,51.0,29.93,South,188,3.0,6.0,75,0.00,,,0.02,weatherlink.com 1.10,2013-05-16 08:12:00,
2013-05-16 04:27:00,58.8,51.0,29.93,SW,215,0.0,3.0,75,0.00,,,0.02,weatherlink.com 1.10,2013-05-16 08:27:00,
2013-05-16 04:42:00,58.2,50.0,29.93,SSW,202,0.0,3.0,75,0.00,,,0.02,weatherlink.com 1.10,2013-05-16 08:42:00,
2013-05-16 04:57:00,57.1,50.0,29.93,SSW,203,0.0,2.0,78,0.00,,,0.02,weatherlink.com 1.10,2013-05-16 08:57:00,
2013-05-16 05:12:00,55.9,50.0,29.93,SSW,197,1.0,3.0,81,0.00,,,0.02,weatherlink.com 1.10,2013-05-16 09:12:00,
2013-05-16 05:27:00,55.2,50.0,29.93,SSW,197,0.0,2.0,82,0.00,,,0.02,weatherlink.com 1.10,2013-05-16 09:27:00,
2013-05-16 05:42:00,54.7,49.0,29.93,SSW,197,1.0,2.0,82,0.00,,,0.02,weatherlink.com 1.10,2013-05-16 09:42:00,
2013-05-16 05:57:00,54.7,49.0,29.94,SSW,197,1.0,2.0,81,0.00,,,0.02,weatherlink.com 1.10,2013-05-16 09:57:00,
2013-05-16 06:12:00,55.0,49.0,29.94,SSW,197,0.0,3.0,81,0.00,,,0.02,weatherlink.com 1.10,2013-05-16 10:12:00,
2013-05-16 06:27:00,56.0,49.0,29.95,South,190,2.0,2.0,76,0.00,,,0.02,weatherlink.com 1.10,2013-05-16 10:27:00,
2013-05-16 06:42:00,56.9,48.0,29.95,South,169,0.0,2.0,72,0.00,,,0.02,weatherlink.com 1.10,2013-05-16 10:42:00,
2013-05-16 06:57:00,58.5,47.0,29.96,SSE,168,0.0,3.0,65,0.00,,,0.02,weatherlink.com 1.10,2013-05-16 10:57:00,
2013-05-16 07:12:00,60.9,47.0,29.97,South,184,1.0,4.0,60,0.00,,,0.02,weatherlink.com 1.10,2013-05-16 11:12:00,
2013-05-16 07:27:00,62.4,47.0,29.98,SE,138,2.0,7.0,57,0.00,,,0.02,weatherlink.com 1.10,2013-05-16 11:27:00,
2013-05-16 07:42:00,63.5,47.0,29.99,SSE,150,1.0,7.0,56,0.00,,,0.02,weatherlink.com 1.10,2013-05-16 11:42:00,
2013-05-16 07:57:00,64.6,47.0,29.99,ENE,58,8.0,9.0,54,0.00,,,0.02,weatherlink.com 1.10,2013-05-16 11:57:00,
2013-05-16 08:12:00,65.3,48.0,29.99,South,189,3.0,7.0,53,0.00,,,0.02,weatherlink.com 1.10,2013-05-16 12:12:00,
2013-05-16 08:27:00,66.7,48.0,30.00,ENE,74,3.0,6.0,52,0.00,,,0.02,weatherlink.com 1.10,2013-05-16 12:27:00,
2013-05-16 08:42:00,67.5,49.0,29.99,WNW,294,1.0,5.0,51,0.00,,,0.02,weatherlink.com 1.10,2013-05-16 12:42:00,
2013-05-16 08:57:00,68.9,48.0,30.00,SSW,207,4.0,5.0,47,0.00,,,0.02,weatherlink.com 1.10,2013-05-16 12:57:00,
2013-05-16 09:13:00,69.6,47.0,30.00,North,5,0.0,5.0,45,0.00,,,0.02,weatherlink.com 1.10,2013-05-16 13:13:00,
2013-05-16 09:28:00,70.2,47.0,30.00,East,88,2.0,6.0,43,0.00,,,0.02,weatherlink.com 1.10,2013-05-16 13:28:00,
2013-05-16 09:43:00,70.6,46.0,30.00,WNW,296,4.0,7.0,41,0.00,,,0.02,weatherlink.com 1.10,2013-05-16 13:43:00,
2013-05-16 09:58:00,72.1,46.0,29.99,NNW,329,2.0,4.0,40,0.00,,,0.00,weatherlink.com 1.10,2013-05-16 13:58:00,
2013-05-16 10:13:00,72.7,45.0,29.99,SE,143,1.0,6.0,37,0.00,,,0.00,weatherlink.com 1.10,2013-05-16 14:13:00,
2013-05-16 10:28:00,72.3,44.0,29.98,SSE,163,3.0,6.0,36,0.00,,,0.00,weatherlink.com 1.10,2013-05-16 14:28:00,
2013-05-16 10:43:00,74.1,42.0,29.98,West,273,1.0,6.0,32,0.00,,,0.00,weatherlink.com 1.10,2013-05-16 14:43:00,
2013-05-16 10:58:00,74.9,41.0,29.98,SSW,194,5.0,6.0,30,0.00,,,0.00,weatherlink.com 1.10,2013-05-16 14:58:00,
2013-05-16 11:13:00,76.8,42.0,29.97,South,187,0.0,5.0,29,0.00,,,0.00,weatherlink.com 1.10,2013-05-16 15:13:00,
2013-05-16 11:28:00,76.9,43.0,29.97,SSE,161,5.0,6.0,30,0.00,,,0.00,weatherlink.com 1.10,2013-05-16 15:28:00,
2013-05-16 11:43:00,76.7,41.0,29.97,ESE,117,8.0,8.0,28,0.00,,,0.00,weatherlink.com 1.10,2013-05-16 15:43:00,
2013-05-16 11:58:00,77.7,40.0,29.96,East,92,1.0,7.0,26,0.00,,,0.00,weatherlink.com 1.10,2013-05-16 15:58:00,
2013-05-16 12:13:00,78.7,41.0,29.95,NW,311,1.0,9.0,26,0.00,,,0.00,weatherlink.com 1.10,2013-05-16 16:13:00,
2013-05-16 12:28:00,79.4,42.0,29.95,East,88,0.0,8.0,26,0.00,,,0.00,weatherlink.com 1.10,2013-05-16 16:28:00,
2013-05-16 12:43:00,80.4,43.0,29.94,ENE,71,2.0,7.0,27,0.00,,,0.00,weatherlink.com 1.10,2013-05-16 16:43:00,
2013-05-16 12:58:00,81.0,44.0,29.94,South,191,1.0,6.0,27,0.00,,,0.00,weatherlink.com 1.10,2013-05-16 16:58:00,
2013-05-16 13:13:00,81.9,42.0,29.94,ESE,119,2.0,6.0,24,0.00,,,0.00,weatherlink.com 1.10,2013-05-16 17:13:00,
2013-05-16 13:28:00,82.3,42.0,29.94,South,182,4.0,9.0,24,0.00,,,0.00,weatherlink.com 1.10,2013-05-16 17:28:00,
2013-05-16 13:43:00,81.3,41.0,29.93,SE,128,7.0,11.0,24,0.00,,,0.00,weatherlink.com 1.10,2013-05-16 17:43:00,
2013-05-16 13:58:00,83.5,43.0,29.93,East,90,1.0,7.0,24,0.00,,,0.00,weatherlink.com 1.10,2013-05-16 17:58:00,
2013-05-16 14:13:00,85.0,44.0,29.93,East,88,5.0,8.0,24,0.00,,,0.00,weatherlink.com 1.10,2013-05-16 18:13:00,
2013-05-16 14:28:00,83.2,42.0,29.92,West,271,3.0,11.0,23,0.00,,,0.00,weatherlink.com 1.10,2013-05-16 18:28:00,
2013-05-16 14:43:00,84.7,44.0,29.92,NE,40,2.0,8.0,24,0.00,,,0.00,weatherlink.com 1.10,2013-05-16 18:43:00,
2013-05-16 14:58:00,84.9,42.0,29.92,SSE,163,1.0,13.0,22,0.00,,,0.00,weatherlink.com 1.10,2013-05-16 18:58:00,
2013-05-16 15:13:00,84.7,42.0,29.92,NE,48,4.0,10.0,22,0.00,,,0.00,weatherlink.com 1.10,2013-05-16 19:13:00,
2013-05-16 15:28:00,83.6,43.0,29.92,East,88,3.0,9.0,24,0.00,,,0.00,weatherlink.com 1.10,2013-05-16 19:28:00,
2013-05-16 15:43:00,80.7,43.0,29.92,South,181,2.0,5.0,26,0.00,,,0.00,weatherlink.com 1.10,2013-05-16 19:43:00,
2013-05-16 15:58:00,81.4,42.0,29.91,South,176,0.0,5.0,25,0.00,,,0.00,weatherlink.com 1.10,2013-05-16 19:58:00,
2013-05-16 16:13:00,83.4,40.0,29.91,NNE,24,2.0,7.0,21,0.00,,,0.00,weatherlink.com 1.10,2013-05-16 20:13:00,
2013-05-16 16:28:00,84.8,41.0,29.91,SW,219,2.0,8.0,21,0.00,,,0.00,weatherlink.com 1.10,2013-05-16 20:28:00,
2013-05-16 16:43:00,84.1,40.0,29.91,North,9,2.0,10.0,21,0.00,,,0.00,weatherlink.com 1.10,2013-05-16 20:43:00,
2013-05-16 16:58:00,82.4,40.0,29.91,SSE,154,6.0,10.0,22,0.00,,,0.00,weatherlink.com 1.10,2013-05-16 20:58:00,
2013-05-16 17:14:00,82.5,40.0,29.91,WSW,250,4.0,12.0,22,0.00,,,0.00,weatherlink.com 1.10,2013-05-16 21:14:00,
2013-05-16 17:29:00,82.4,42.0,29.91,SSW,195,3.0,5.0,24,0.00,,,0.00,weatherlink.com 1.10,2013-05-16 21:29:00,
2013-05-16 17:44:00,81.9,41.0,29.90,East,82,3.0,9.0,23,0.00,,,0.00,weatherlink.com 1.10,2013-05-16 21:44:00,
2013-05-16 17:59:00,81.4,40.0,29.90,North,350,1.0,7.0,23,0.00,,,0.00,weatherlink.com 1.10,2013-05-16 21:59:00,
2013-05-16 18:14:00,80.1,40.0,29.91,ESE,117,2.0,5.0,24,0.00,,,0.00,weatherlink.com 1.10,2013-05-16 22:14:00,
2013-05-16 18:29:00,79.5,39.0,29.91,South,185,1.0,12.0,23,0.00,,,0.00,weatherlink.com 1.10,2013-05-16 22:29:00,
2013-05-16 18:44:00,78.9,39.0,29.91,SW,219,0.0,6.0,24,0.00,,,0.00,weatherlink.com 1.10,2013-05-16 22:44:00,
2013-05-16 18:59:00,78.0,38.0,29.92,SSW,212,2.0,11.0,24,0.00,,,0.00,weatherlink.com 1.10,2013-05-16 22:59:00,
2013-05-16 19:14:00,77.4,38.0,29.92,SSW,204,2.0,7.0,24,0.00,,,0.00,weatherlink.com 1.10,2013-05-16 23:14:00,
2013-05-16 19:29:00,76.4,40.0,29.93,SW,225,3.0,3.0,27,0.00,,,0.00,weatherlink.com 1.10,2013-05-16 23:29:00,
2013-05-16 19:44:00,74.7,42.0,29.93,East,98,1.0,3.0,31,0.00,,,0.00,weatherlink.com 1.10,2013-05-16 23:44:00,
2013-05-16 19:59:00,72.6,45.0,29.94,ESE,121,0.0,3.0,37,0.00,,,0.00,weatherlink.com 1.10,2013-05-16 23:59:00,
2013-05-16 20:14:00,70.4,41.0,29.95,South,186,1.0,2.0,35,0.00,,,0.00,weatherlink.com 1.10,2013-05-17 00:14:00,
2013-05-16 20:29:00,68.8,42.0,29.95,SE,134,2.0,2.0,38,0.00,,,0.00,weatherlink.com 1.10,2013-05-17 00:29:00,
2013-05-16 20:44:00,67.6,41.0,29.96,South,172,1.0,2.0,38,0.00,,,0.00,weatherlink.com 1.10,2013-05-17 00:44:00,
2013-05-16 20:59:00,67.2,43.0,29.96,South,182,0.0,3.0,41,0.00,,,0.00,weatherlink.com 1.10,2013-05-17 00:59:00,
2013-05-16 21:14:00,65.9,43.0,29.98,SSE,155,0.0,3.0,43,0.00,,,0.00,weatherlink.com 1.10,2013-05-17 01:14:00,
2013-05-16 21:29:00,64.8,42.0,29.98,SSE,157,1.0,2.0,44,0.00,,,0.00,weatherlink.com 1.10,2013-05-17 01:29:00,
2013-05-16 21:44:00,64.9,41.0,29.99,SSW,204,0.0,3.0,42,0.00,,,0.00,weatherlink.com 1.10,2013-05-17 01:44:00,
2013-05-16 21:59:00,65.0,43.0,30.00,SSW,203,1.0,3.0,45,0.00,,,0.00,weatherlink.com 1.10,2013-05-17 01:59:00,
2013-05-16 22:14:00,64.9,45.0,30.00,SSW,203,0.0,3.0,48,0.00,,,0.00,weatherlink.com 1.10,2013-05-17 02:14:00,
2013-05-16 22:29:00,64.2,44.0,30.00,SSW,203,0.0,3.0,48,0.00,,,0.00,weatherlink.com 1.10,2013-05-17 02:29:00,
2013-05-16 22:44:00,63.3,44.0,30.01,SSW,200,1.0,3.0,49,0.00,,,0.00,weatherlink.com 1.10,2013-05-17 02:44:00,
2013-05-16 22:59:00,62.7,41.0,30.01,SSW,200,0.0,2.0,46,0.00,,,0.00,weatherlink.com 1.10,2013-05-17 02:59:00,
2013-05-16 23:14:00,63.0,42.0,30.01,SSW,200,1.0,1.0,47,0.00,,,0.00,weatherlink.com 1.10,2013-05-17 03:14:00,
2013-05-16 23:29:00,62.6,42.0,30.02,SSW,200,0.0,2.0,47,0.00,,,0.00,weatherlink.com 1.10,2013-05-17 03:29:00,
2013-05-16 23:44:00,61.8,41.0,30.03,SSW,200,0.0,2.0,47,0.00,,,0.00,weatherlink.com 1.10,2013-05-17 03:44:00,
2013-05-16 23:59:00,62.2,40.0,30.04,SSW,200,1.0,3.0,45,0.00,,,0.00,weatherlink.com 1.10,2013-05-17 03:59:00,